Voltar ao catálogo

STARLINK-30969

AtivoComunicaçõesVLEO
NORAD 58438·PAYLOAD·🇺🇸 United States

Lançado Nov 28, 2023 de Cape Canaveral Space Force Station

Loading…

Próximas Passagens (próximas 24 horas)

TLE

AtualizadoSource: CelesTrak SupGP

Época: Sep 14, 2026, 20:57 UTC

1 58438C 23183B   26257.87340278  .00052336  00000+0  18962-2 0  2579
2 58438  43.0012  53.2466 0001433 275.6929 209.2791 15.27542149    18

Acompanhe STARLINK-30969 em tempo real com AllMySat

Download on the App Store